| time (UTC) | temp C | wind direction | speed KPH | gust KPH | rain 1hr cm | rain 24hr cm | rain mn cm | humidity % | barometer mb |
| 20260510170034 | 36 | 209 | 6.4 | 0.0 | 0.00 | 0.00 | 0.00 | 49 | 1015.7 |
| 20260510164537 | 35 | 232 | 6.4 | 0.0 | 0.00 | 0.00 | 0.00 | 52 | 1015.7 |
| 20260510163030 | 35 | 202 | 8.0 | 0.0 | 0.00 | 0.00 | 0.00 | 53 | 1015.9 |
| 20260510161527 | 34 | 256 | 4.8 | 0.0 | 0.00 | 0.00 | 0.00 | 55 | 1016.0 |
| 20260510160027 | 34 | 200 | 4.8 | 0.0 | 0.00 | 0.00 | 0.00 | 55 | 1016.0 |
| 20260510154532 | 34 | 256 | 6.4 | 0.0 | 0.00 | 0.00 | 0.00 | 53 | 1015.8 |
| 20260510153023 | 34 | 267 | 6.4 | 0.0 | 0.00 | 0.00 | 0.00 | 55 | 1015.8 |
| 20260510151519 | 33 | 217 | 3.2 | 0.0 | 0.00 | 0.00 | 0.00 | 61 | 1015.9 |
| 20260510150018 | 32 | 171 | 4.8 | 0.0 | 0.00 | 0.00 | 0.00 | 61 | 1015.8 |
| 20260510144524 | 32 | 207 | 3.2 | 0.0 | 0.00 | 0.00 | 0.00 | 64 | 1016.0 |
| 20260510143015 | 31 | 221 | 3.2 | 0.0 | 0.00 | 0.00 | 0.00 | 67 | 1015.8 |
| 20260510141510 | 31 | 121 | 4.8 | 0.0 | 0.00 | 0.00 | 0.00 | 68 | 1015.6 |
| 20260510140008 | 30 | 236 | 8.0 | 0.0 | 0.00 | 0.00 | 0.00 | 71 | 1015.6 |
| 20260510134506 | 30 | 229 | 4.8 | 0.0 | 0.00 | 0.00 | 0.00 | 72 | 1015.6 |
| 20260510133002 | 29 | 197 | 4.8 | 0.0 | 0.00 | 0.00 | 0.00 | 76 | 1015.6 |
| 20260510131601 | 28 | 240 | 3.2 | 0.0 | 0.00 | 0.00 | 0.00 | 77 | 1015.6 |
| 20260510130058 | 28 | 238 | 6.4 | 0.0 | 0.00 | 0.00 | 0.00 | 78 | 1015.3 |
| 20260510124604 | 28 | 264 | 4.8 | 0.0 | 0.00 | 0.00 | 0.00 | 78 | 1015.4 |
| 20260510123055 | 27 | 232 | 4.8 | 0.0 | 0.00 | 0.00 | 0.00 | 81 | 1015.2 |
| 20260510121551 | 27 | 216 | 4.8 | 0.0 | 0.00 | 0.00 | 0.00 | 84 | 1015.0 |
| 20260510120050 | 26 | 232 | 3.2 | 0.0 | 0.00 | 0.00 | 0.00 | 87 | 1014.8 |
| 20260510114549 | 26 | 251 | 1.6 | 0.0 | 0.00 | 0.00 | 0.00 | 89 | 1014.8 |
| 20260510113047 | 25 | 275 | 0.0 | 0.0 | 0.00 | 0.00 | 0.00 | 91 | 1014.6 |
| 20260510111555 | 25 | 259 | 0.0 | 0.0 | 0.00 | 0.00 | 0.00 | 91 | 1014.5 |
| 20260510110045 | 25 | 244 | 0.0 | 0.0 | 0.00 | 0.00 | 0.00 | 90 | 1014.4 |
| 20260510104604 | 25 | 271 | 0.0 | 0.0 | 0.00 | 0.00 | 0.00 | 90 | 1014.3 |
| 20260510103046 | 24 | 121 | 0.0 | 0.0 | 0.00 | 0.00 | 0.00 | 89 | 1014.1 |
| 20260510101543 | 25 | 121 | 0.0 | 0.0 | 0.00 | 0.00 | 0.00 | 88 | 1013.9 |
| 20260510100042 | 25 | 121 | 0.0 | 0.0 | 0.00 | 0.00 | 0.00 | 88 | 1014.0 |
| 20260510094543 | 25 | 121 | 0.0 | 0.0 | 0.00 | 0.00 | 0.00 | 88 | 1013.9 |
| 20260510093041 | 25 | 121 | 0.0 | 0.0 | 0.00 | 0.00 | 0.00 | 88 | 1013.9 |
| 20260510091539 | 25 | 121 | 0.0 | 0.0 | 0.00 | 0.00 | 0.00 | 87 | 1013.8 |
| 20260510090039 | 25 | 121 | 0.0 | 0.0 | 0.00 | 0.00 | 0.00 | 87 | 1013.5 |
| 20260510084537 | 25 | 121 | 0.0 | 0.0 | 0.00 | 0.00 | 0.00 | 87 | 1013.5 |
| 20260510083036 | 25 | 121 | 0.0 | 0.0 | 0.00 | 0.00 | 0.00 | 87 | 1013.5 |
| 20260510081537 | 25 | 121 | 0.0 | 0.0 | 0.00 | 0.00 | 0.00 | 85 | 1013.5 |
| 20260510080039 | 25 | 121 | 0.0 | 0.0 | 0.00 | 0.00 | 0.00 | 84 | 1013.5 |
| 20260510074535 | 25 | 121 | 0.0 | 0.0 | 0.00 | 0.00 | 0.00 | 84 | 1013.5 |
| 20260510073032 | 25 | 223 | 0.0 | 0.0 | 0.00 | 0.00 | 0.00 | 85 | 1013.5 |
| 20260510071531 | 25 | 223 | 0.0 | 0.0 | 0.00 | 0.00 | 0.00 | 85 | 1013.6 |
| 20260510070029 | 25 | 223 | 0.0 | 0.0 | 0.00 | 0.00 | 0.00 | 83 | 1013.6 |
| 20260510064530 | 26 | 223 | 0.0 | 0.0 | 0.00 | 0.00 | 0.00 | 82 | 1013.7 |
| 20260510063027 | 26 | 223 | 0.0 | 0.0 | 0.00 | 0.00 | 0.00 | 80 | 1013.8 |
| 20260510061530 | 27 | 223 | 0.0 | 0.0 | 0.00 | 0.00 | 0.00 | 78 | 1013.8 |
| 20260510060041 | 26 | 266 | 0.0 | 0.0 | 0.00 | 0.00 | 0.00 | 81 | 1014.0 |
| 20260510054523 | 26 | 264 | 0.0 | 0.0 | 0.00 | 0.00 | 0.00 | 80 | 1014.1 |
| 20260510053019 | 26 | 264 | 0.0 | 0.0 | 0.00 | 0.00 | 0.00 | 79 | 1014.1 |
| 20260510051519 | 26 | 264 | 0.0 | 0.0 | 0.00 | 0.00 | 0.00 | 77 | 1014.2 |
| 20260510050016 | 27 | 269 | 0.0 | 0.0 | 0.00 | 0.00 | 0.00 | 76 | 1014.3 |
| 20260510044517 | 27 | 265 | 1.6 | 0.0 | 0.00 | 0.00 | 0.00 | 75 | 1014.4 |
| 20260510043014 | 27 | 270 | 1.6 | 0.0 | 0.00 | 0.00 | 0.00 | 74 | 1014.4 |
| 20260510041516 | 27 | 282 | 1.6 | 0.0 | 0.00 | 0.00 | 0.00 | 73 | 1014.5 |
| 20260510040010 | 27 | 285 | 1.6 | 0.0 | 0.00 | 0.00 | 0.00 | 72 | 1014.5 |
| 20260510034507 | 27 | 259 | 3.2 | 0.0 | 0.00 | 0.00 | 0.00 | 71 | 1014.4 |
| 20260510033007 | 27 | 257 | 3.2 | 0.0 | 0.00 | 0.00 | 0.00 | 71 | 1014.4 |
| 20260510031506 | 27 | 275 | 1.6 | 0.0 | 0.00 | 0.00 | 0.00 | 71 | 1014.4 |
| 20260510030005 | 27 | 274 | 3.2 | 0.0 | 0.00 | 0.00 | 0.00 | 71 | 1014.2 |
| 20260510024506 | 27 | 290 | 3.2 | 0.0 | 0.00 | 0.00 | 0.00 | 71 | 1014.2 |
| 20260510023003 | 28 | 266 | 3.2 | 0.0 | 0.00 | 0.00 | 0.00 | 70 | 1014.0 |
| 20260510021502 | 28 | 265 | 4.8 | 0.0 | 0.00 | 0.00 | 0.00 | 70 | 1013.6 |
| 20260510020004 | 28 | 247 | 4.8 | 0.0 | 0.00 | 0.00 | 0.00 | 69 | 1013.5 |
| 20260510014502 | 28 | 239 | 6.4 | 0.0 | 0.00 | 0.00 | 0.00 | 68 | 1013.5 |
| 20260510013003 | 28 | 221 | 8.0 | 0.0 | 0.00 | 0.00 | 0.00 | 67 | 1013.3 |
| 20260510011503 | 28 | 269 | 8.0 | 0.0 | 0.00 | 0.00 | 0.00 | 68 | 1013.0 |
| 20260510010110 | 28 | 291 | 6.4 | 0.0 | 0.00 | 0.00 | 0.00 | 68 | 1012.8 |
| 20260510004600 | 28 | 252 | 8.0 | 0.0 | 0.00 | 0.00 | 0.00 | 67 | 1012.5 |
| 20260510003107 | 29 | 244 | 9.7 | 0.0 | 0.00 | 0.00 | 0.00 | 63 | 1012.2 |
| 20260510001559 | 29 | 206 | 8.0 | 0.0 | 0.00 | 0.00 | 0.00 | 64 | 1012.0 |
| 20260510000100 | 29 | 242 | 6.4 | 0.0 | 0.00 | 0.00 | 0.00 | 67 | 1011.8 |
| 20260509234608 | 30 | 258 | 3.2 | 0.0 | 0.00 | 0.00 | 0.00 | 65 | 1011.7 |
| 20260509233104 | 31 | 238 | 6.4 | 0.0 | 0.00 | 0.00 | 0.00 | 64 | 1011.5 |
| 20260509231605 | 31 | 240 | 4.8 | 0.0 | 0.00 | 0.00 | 0.00 | 63 | 1011.3 |
| 20260509230057 | 31 | 209 | 4.8 | 0.0 | 0.00 | 0.00 | 0.00 | 62 | 1011.1 |
| 20260509224609 | 32 | 257 | 6.4 | 0.0 | 0.00 | 0.00 | 0.00 | 59 | 1011.0 |
| 20260509223057 | 32 | 228 | 8.0 | 0.0 | 0.00 | 0.00 | 0.00 | 58 | 1010.9 |
| 20260509221556 | 33 | 281 | 6.4 | 0.0 | 0.00 | 0.00 | 0.00 | 53 | 1010.8 |
| 20260509220055 | 35 | 200 | 6.4 | 0.0 | 0.00 | 0.00 | 0.00 | 51 | 1010.9 |
| 20260509214555 | 35 | 211 | 8.0 | 0.0 | 0.00 | 0.00 | 0.00 | 51 | 1010.8 |
| 20260509213107 | 35 | 229 | 8.0 | 0.0 | 0.00 | 0.00 | 0.00 | 48 | 1010.8 |
| 20260509211613 | 36 | 237 | 8.0 | 0.0 | 0.00 | 0.00 | 0.00 | 45 | 1010.8 |
| 20260509210059 | 36 | 267 | 8.0 | 0.0 | 0.00 | 0.00 | 0.00 | 47 | 1010.9 |
| 20260509204601 | 36 | 252 | 9.7 | 0.0 | 0.00 | 0.00 | 0.00 | 48 | 1010.9 |
| 20260509203058 | 37 | 267 | 9.7 | 0.0 | 0.00 | 0.00 | 0.00 | 48 | 1011.0 |
| 20260509201550 | 37 | 246 | 6.4 | 0.0 | 0.00 | 0.00 | 0.00 | 48 | 1011.1 |
| 20260509200048 | 36 | 250 | 9.7 | 0.0 | 0.00 | 0.00 | 0.00 | 52 | 1011.3 |
| 20260509194548 | 37 | 215 | 8.0 | 0.0 | 0.00 | 0.00 | 0.00 | 48 | 1011.4 |
| 20260509193047 | 37 | 262 | 8.0 | 0.0 | 0.00 | 0.00 | 0.00 | 47 | 1011.5 |
| 20260509191543 | 38 | 238 | 9.7 | 0.0 | 0.00 | 0.00 | 0.00 | 46 | 1011.5 |
| 20260509190046 | 37 | 223 | 9.7 | 0.0 | 0.00 | 0.00 | 0.00 | 46 | 1011.6 |
| 20260509184539 | 37 | 172 | 6.4 | 0.0 | 0.00 | 0.00 | 0.00 | 44 | 1011.7 |
| 20260509183038 | 36 | 167 | 3.2 | 0.0 | 0.00 | 0.00 | 0.00 | 45 | 1012.0 |
| 20260509181533 | 35 | 238 | 9.7 | 0.0 | 0.00 | 0.00 | 0.00 | 45 | 1012.4 |
| 20260509180030 | 36 | 245 | 8.0 | 0.0 | 0.00 | 0.00 | 0.00 | 45 | 1012.5 |
| 20260509174533 | 35 | 248 | 8.0 | 0.0 | 0.00 | 0.00 | 0.00 | 45 | 1012.7 |
| 20260509173030 | 34 | 286 | 9.7 | 0.0 | 0.00 | 0.00 | 0.00 | 48 | 1012.8 |
| 20260509171528 | 34 | 260 | 8.0 | 0.0 | 0.00 | 0.00 | 0.00 | 46 | 1012.9 |